ARIANE 5 DEB (SYLDA), 38554

Orbit data source: Space-Track

ARIANE 5 DEB (SYLDA), 38554 is space debris in HEO originally from a launch on Thu, 05 Jul 2012 UTC launched from the French Guiana (FRGUI). Debris objects in space refer to the collection of defunct objects orbiting the Earth. Examples of debris include non-operational satellites, rocket bodies, and fragments generated from explosions, collisions, or faulty payload assembly.

Loading next visibility...
Identifier
38554, 2012-035D
Orbit
HEO
Last TLE update
22 hours ago
Origin
Manufacturer
EADS/Bremen
Mission
Spacecraft
Bus & Motor
SYLDA 5, Unknown motor
Mass
440 kg wet, 440 kg dry
Launch date (UTC)
2012-07-05 (13 years ago)
Launch vehicle
Unknown
Launch site
French Guiana (FRGUI)
Object type
Payload
Rocket body
Debris
Shape & HBR
Cyl, 5.8 m
Radar Cross Section
28.451 m², Large (>1 m²)

Expand to show TLE details & history

TLE from 22 hours ago
0 ARIANE 5 DEB (SYLDA)
1 38554U 12035D   25126.94176400  .00009414  00000-0  29108-2 0  9993
2 38554   5.7696 287.8121 5871816  58.6106 345.8938  4.20832556138121
Epoch: 2025-05-06T22:36Z
Definitive object data (Epoch: 2025-05-06T22:36:08.409Z)
Latitude
0.00002°
Longitude
83.69282°
Altitude
1,758.649 km
Speed
8.566 km/s
True Right ascension
19h 11m 02s
True Declination
0° 00' 00"
Sunlit
Object was in daylight at TLE epoch
Visualization TLE readout
Latitude
-4.28837°
Longitude
35.14451°
Altitude
6,627.583 km
Speed
6.058 km/s
Apparent Right ascension
16h 15m 24s
Apparent Declination
-15° 53' 04"
Sunlit
Object is in full shadow
Visualization observer readout
Local Sidereal Time
05:04:53
Azimuth
27.671° NE
Elevation
-63.663°
Doppler factor
1
Orbital elements
Apogee altitude
19,350.953 km
Perigee altitude
313.877 km
Semi-major axis
16,210.552 km
Eccentricity
0.5871816
Inclination
5.7696°
RAAN
287.8121°
Arg. of periapsis
58.6106°
True anomaly
301.51751°
Mean anomaly
345.8938°
Eccentric anomaly
328.13098°
Mean motion
1.05159 °/min
BSTAR
0.0029108
Orbital period
342.34 mins
Loading maneuver chart data...
Loading SW <> Apogee altitude chart data...
Loading historical data...
Loading historical data...
Loading historical data...
Loading historical data...
Loading historical data...
Loading historical data...
Loading historical data...

ARIANE 5 DEB (SYLDA) Visibility forecast

Observer location: undefined°, undefined°

Span
Click to sort rows by Start time (UTC) header in descending order
Start Az.
Max El. time (UTC)
Max El. Az.
Max El.
End time (UTC)
End Az.
220 mins2025-05-07 22:01:32.864Z209.353° SW2025-05-07 22:29:32.864Z160.442° S24.313°2025-05-08 01:41:32.864Z124.392° SE
196 mins2025-05-08 05:21:32.864Z240.217° WSW2025-05-08 08:11:32.864Z207.185° SW17.864°2025-05-08 08:37:32.864Z168.362° S
14 mins2025-05-08 20:47:32.864Z190.353° SSW2025-05-08 21:01:32.864Z154.905° SSE19.028°2025-05-08 21:01:32.864Z154.905° SSE
|